When you browse on this site, cookies collect data to enhance your experience and personalize the content and advertising you see.
Visit our Privacy Policy to learn more. By continuing to use the site, you agree to this use of cookies and data.
  • In Germany
  • List of Countries
  • For 7 days
  • Water Temperature
  • Satellite Maps
  • Weather Map
  • Weather Widgets
  • user-avatar
    Login

    Hourly Weather Manika

    Today, 17 November, Saturday

    Time Temperature Precipitation Wind Pressure Humidity
    00:00 +22°C° 0 mm 1 mps 680 mmHg 69%
    01:00 +22°C° 0 mm 1 mps 680 mmHg 75%
    02:00 +21°C° 0 mm 1 mps 680 mmHg 80%
    03:00 +21°C° 0 mm 1 mps 680 mmHg 83%
    04:00 +20°C° 0 mm 1 mps 680 mmHg 85%
    05:00 +20°C° 0 mm 1 mps 680 mmHg 87%
    06:00 +23°C° 0 mm 1 mps 681 mmHg 73%
    07:00 +26°C° 0 mm 1 mps 681 mmHg 59%
    08:00 +29°C° 0 mm 1 mps 682 mmHg 46%
    09:00 +32°C° 0 mm 1 mps 682 mmHg 37%
    10:00 +35°C° 0 mm 1 mps 682 mmHg 29%
    11:00 +39°C° 0 mm 1 mps 683 mmHg 20%
    12:00 +39°C° 0 mm 2 mps 682 mmHg 20%
    13:00 +38°C° 0 mm 2 mps 681 mmHg 20%
    14:00 +37°C° 0 mm 2 mps 680 mmHg 20%
    15:00 +36°C° 0 mm 2 mps 679 mmHg 22%
    16:00 +35°C° 0 mm 2 mps 679 mmHg 24%
    17:00 +34°C° 0 mm 2 mps 679 mmHg 27%
    18:00 +31°C° 0 mm 2 mps 679 mmHg 31%
    19:00 +29°C° 0 mm 2 mps 679 mmHg 36%
    20:00 +27°C° 0 mm 2 mps 679 mmHg 41%
    21:00 +26°C° 0 mm 2 mps 679 mmHg 45%
    22:00 +25°C° 0 mm 2 mps 680 mmHg 49%
    23:00 +24°C° 0 mm 2 mps 680 mmHg 53%

    Tomorrow, 18 November, Sunday

    Time Temperature Precipitation Wind Pressure Humidity
    00:00 +24°C° 0 mm 1 mps 679 mmHg 58%
    01:00 +23°C° 0 mm 1 mps 679 mmHg 64%
    02:00 +22°C° 0 mm 1 mps 678 mmHg 69%
    03:00 +22°C° 0 mm 1 mps 679 mmHg 72%
    04:00 +21°C° 0 mm 1 mps 679 mmHg 75%
    05:00 +21°C° 0 mm 1 mps 679 mmHg 78%
    06:00 +24°C° 0 mm 1 mps 680 mmHg 66%
    07:00 +28°C° 0 mm 1 mps 681 mmHg 53%
    08:00 +31°C° 0 mm 1 mps 682 mmHg 40%
    09:00 +33°C° 0 mm 1 mps 682 mmHg 35%
    10:00 +36°C° 0 mm 2 mps 682 mmHg 29%
    11:00 +37°C° 0 mm 2 mps 682 mmHg 23%
    12:00 +37°C° 0 mm 2 mps 681 mmHg 23%
    13:00 +37°C° 0 mm 3 mps 680 mmHg 22%
    14:00 +36°C° 0 mm 3 mps 679 mmHg 22%
    15:00 +35°C° 0 mm 3 mps 679 mmHg 24%
    16:00 +34°C° 0 mm 3 mps 679 mmHg 26%
    17:00 +33°C° 0 mm 3 mps 678 mmHg 28%
    18:00 +30°C° 0 mm 3 mps 679 mmHg 35%
    19:00 +28°C° 0 mm 3 mps 679 mmHg 41%
    20:00 +27°C° 0 mm 3 mps 679 mmHg 48%
    21:00 +25°C° 0 mm 3 mps 679 mmHg 56%
    22:00 +24°C° 0 mm 2 mps 680 mmHg 64%
    23:00 +23°C° 0 mm 2 mps 680 mmHg 72%

    Day after tomorrow, 19 November, Monday

    Time Temperature Precipitation Wind Pressure Humidity
    00:00 +21°C° 0 mm 2 mps 679 mmHg 77%
    01:00 +21°C° 0 mm 1 mps 679 mmHg 82%
    02:00 +20°C° 0 mm 1 mps 678 mmHg 86%
    03:00 +20°C° 0 mm 1 mps 678 mmHg 88%
    04:00 +19°C° 0 mm 1 mps 679 mmHg 89%
    05:00 +19°C° 0 mm 1 mps 679 mmHg 91%
    06:00 +22°C° 0 mm 1 mps 680 mmHg 76%
    07:00 +24°C° 0 mm 2 mps 681 mmHg 60%
    08:00 +27°C° 0 mm 2 mps 682 mmHg 45%
    09:00 +29°C° 0 mm 3 mps 682 mmHg 37%
    10:00 +33°C° 0 mm 3 mps 682 mmHg 29%
    11:00 +35°C° 0 mm 3 mps 682 mmHg 21%
    12:00 +35°C° 0 mm 3 mps 681 mmHg 20%
    13:00 +36°C° 0 mm 4 mps 680 mmHg 19%
    14:00 +36°C° 0 mm 4 mps 679 mmHg 17%
    15:00 +35°C° 0 mm 4 mps 679 mmHg 19%
    16:00 +34°C° 0 mm 4 mps 679 mmHg 21%
    17:00 +33°C° 0 mm 4 mps 678 mmHg 23%
    18:00 +30°C° 0 mm 4 mps 679 mmHg 30%
    19:00 +28°C° 0 mm 3 mps 679 mmHg 37%
    20:00 +25°C° 0 mm 3 mps 679 mmHg 45%
    21:00 +24°C° 0 mm 2 mps 679 mmHg 52%
    22:00 +23°C° 0 mm 2 mps 679 mmHg 59%
    23:00 +21°C° 0 mm 1 mps 679 mmHg 67%

    20 November, Tuesday

    Time Temperature Precipitation Wind Pressure Humidity
    00:00 +21°C° 0 mm 1 mps 678 mmHg 70%
    01:00 +20°C° 0 mm 1 mps 678 mmHg 74%
    02:00 +19°C° 0 mm 1 mps 677 mmHg 77%
    03:00 +19°C° 0 mm 1 mps 677 mmHg 78%
    04:00 +19°C° 0 mm 1 mps 677 mmHg 79%
    05:00 +18°C° 0 mm 1 mps 678 mmHg 80%
    06:00 +23°C° 0 mm 1 mps 679 mmHg 64%
    07:00 +25°C° 0 mm 0 mps 680 mmHg 49%
    08:00 +29°C° 0 mm 0 mps 681 mmHg 33%
    09:00 +33°C° 0 mm 1 mps 681 mmHg 26%
    10:00 +36°C° 0 mm 1 mps 681 mmHg 19%
    11:00 +39°C° 0 mm 1 mps 681 mmHg 13%
    12:00 +39°C° 0 mm 1 mps 680 mmHg 12%
    13:00 +40°C° 0 mm 2 mps 679 mmHg 11%
    14:00 +40°C° 0 mm 2 mps 678 mmHg 10%
    15:00 +39°C° 0 mm 2 mps 677 mmHg 11%
    16:00 +38°C° 0 mm 3 mps 677 mmHg 12%
    17:00 +37°C° 0 mm 3 mps 676 mmHg 13%
    18:00 +34°C° 0 mm 3 mps 677 mmHg 17%
    19:00 +29°C° 0 mm 2 mps 677 mmHg 22%
    20:00 +26°C° 0 mm 2 mps 677 mmHg 26%
    21:00 +25°C° 0 mm 2 mps 677 mmHg 29%
    22:00 +25°C° 0 mm 2 mps 677 mmHg 31%
    23:00 +24°C° 0 mm 2 mps 677 mmHg 34%

    21 November, Wednesday

    Time Temperature Precipitation Wind Pressure Humidity
    00:00 +23°C° 0 mm 2 mps 676 mmHg 37%
    01:00 +23°C° 0 mm 2 mps 676 mmHg 41%
    02:00 +21°C° 0 mm 2 mps 675 mmHg 44%
    03:00 +21°C° 0 mm 2 mps 676 mmHg 48%
    04:00 +21°C° 0 mm 2 mps 676 mmHg 51%
    05:00 +21°C° 0 mm 2 mps 676 mmHg 55%
    06:00 +25°C° 0 mm 2 mps 677 mmHg 47%
    07:00 +29°C° 0 mm 2 mps 678 mmHg 40%
    08:00 +34°C° 0 mm 2 mps 679 mmHg 32%
    09:00 +37°C° 0 mm 2 mps 679 mmHg 27%
    10:00 +39°C° 0 mm 2 mps 679 mmHg 21%
    11:00 +42°C° 0 mm 1 mps 679 mmHg 16%
    12:00 +41°C° 0 mm 1 mps 678 mmHg 17%
    13:00 +40°C° 0 mm 1 mps 677 mmHg 18%
    14:00 +39°C° 0 mm 1 mps 676 mmHg 19%
    15:00 +37°C° 0 mm 1 mps 676 mmHg 21%
    16:00 +37°C° 0 mm 2 mps 675 mmHg 23%
    17:00 +36°C° 0 mm 2 mps 675 mmHg 25%
    18:00 +34°C° 0.1 mm 2 mps 676 mmHg 30%
    19:00 +30°C° 0.1 mm 1 mps 676 mmHg 36%
    20:00 +28°C° 0.1 mm 1 mps 676 mmHg 41%
    21:00 +27°C° 0.2 mm 1 mps 676 mmHg 48%
    22:00 +26°C° 0.2 mm 2 mps 677 mmHg 54%
    23:00 +25°C° 0.2 mm 2 mps 677 mmHg 61%

    22 November, Thursday

    Time Temperature Precipitation Wind Pressure Humidity
    00:00 +24°C° 0.4 mm 2 mps 676 mmHg 66%
    01:00 +24°C° 0.4 mm 2 mps 676 mmHg 71%
    02:00 +23°C° 0.4 mm 1 mps 675 mmHg 77%
    03:00 +23°C° 0.3 mm 1 mps 676 mmHg 78%
    04:00 +23°C° 0.3 mm 1 mps 676 mmHg 78%
    05:00 +23°C° 0.3 mm 1 mps 676 mmHg 79%
    06:00 +25°C° 0 mm 1 mps 677 mmHg 69%
    07:00 +28°C° 0 mm 1 mps 678 mmHg 58%
    08:00 +30°C° 0 mm 1 mps 679 mmHg 48%
    09:00 +32°C° 0 mm 1 mps 679 mmHg 43%
    10:00 +35°C° 0 mm 2 mps 679 mmHg 39%
    11:00 +36°C° 0 mm 2 mps 679 mmHg 34%
    12:00 +36°C° 0.1 mm 2 mps 679 mmHg 35%
    13:00 +35°C° 0.1 mm 2 mps 678 mmHg 36%
    14:00 +35°C° 0.1 mm 2 mps 677 mmHg 37%
    15:00 +33°C° 0.7 mm 3 mps 677 mmHg 42%
    16:00 +31°C° 0.7 mm 3 mps 677 mmHg 47%
    17:00 +30°C° 0.7 mm 3 mps 677 mmHg 51%
    18:00 +28°C° 0.5 mm 3 mps 677 mmHg 60%
    19:00 +26°C° 0.5 mm 2 mps 678 mmHg 69%
    20:00 +24°C° 0.5 mm 1 mps 678 mmHg 78%
    21:00 +24°C° 0.2 mm 1 mps 679 mmHg 80%
    22:00 +24°C° 0.2 mm 1 mps 679 mmHg 82%
    23:00 +23°C° 0.2 mm 1 mps 679 mmHg 84%
    Show more